Regional Weather Roundup
Issued by NWS

Home | Current Version | Previous Version | Graphics & Text | Print | Product List | Glossary On
Versions: 1 2 3 4 5 6 7 8 9 10 11 12 13 14 15 16 17 18 19 20 21 22 23 24 25 26 27 28 29 30 31 32 33 34 35 36 37 38 39 40 41 42 43 44 45 46 47 48 49 50
490
ASUS43 KMPX 240110
RWRMN
WEATHER ROUNDUP FOR MINNESOTA
NATIONAL WEATHER SERVICE TWIN CITIES/CHANHASSEN MN
800 PM CDT THU MAR 23 2017


NOTE: "FAIR" INDICATES FEW OR NO CLOUDS BELOW 12,000 FEET WITH NO
SIGNIFICANT WEATHER AND/OR OBSTRUCTIONS TO VISIBILITY. N/A MEANS
CURRENT SKY AND/OR WEATHER CONDITIONS ARE NOT AVAILABLE.

MNZ060>063-068>070-240200-
   Twin Cities Metro

CITY           SKY/WX    TMP DP  RH WIND       PRES   REMARKS
TWIN CITIES    DRIZZLE   39  34  82 SE9       29.85R
ST PAUL        CLOUDY    39  35  86 SE14      29.87R
CRYSTAL        CLOUDY    38  33  82 SE10      29.85R HAZE
BLAINE         CLOUDY    39  37  93 SE7       29.85R FOG
LAKEVILLE      CLOUDY    37  37 100 SE9       29.84S
EDEN PRAIRIE   CLOUDY    39  35  86 SE8       29.83R FOG
SOUTH ST PAUL  CLOUDY    39  34  81 S6        29.85R
LAKE ELMO      CLOUDY    37  34  87 S10       29.87R
$$
MNZ001>005-007-008-013>017-022>024-027-028-240200-
   Northwest Minnesota

CITY           SKY/WX    TMP DP  RH WIND       PRES   REMARKS
BEMIDJI        RAIN      33  32  98 S6        29.79F WCI  27
HALLOCK        CLOUDY    34  34 100 S6        29.82R WCI  29
ROSEAU         CLOUDY    36  32  87 S3        29.82S
WARROAD        CLOUDY    36  32  87 S3        29.82S
THIEF RVR FALL CLOUDY   N/A N/A N/A S9        29.83R
CROOKSTON      CLOUDY    34  34 100 S7        29.84R WCI  28
FOSSTON        DRIZZLE   34  30  86 CALM      29.83R
DETROIT LAKES  DRIZZLE   34  32  93 SE8       29.81S WCI  27
MOORHEAD       CLOUDY    34  34 100 SE3       29.83R FOG
PARK RAPIDS    LGT RAIN  34  30  85 SE8       29.82R WCI  27
MAHNOMEN       LGT RAIN  34  32  94 CALM      29.82R
$$
MNZ006-009>011-018-025>026-240200-
   North Central Minnesota

CITY           SKY/WX    TMP DP  RH WIND       PRES   REMARKS
BAUDETTE       CLOUDY    34  32  92 S6        29.82R WCI  29
FLAG ISLAND    CLOUDY    34  32  93 S8        29.82R WCI  27
INTL FALLS     CLOUDY    33  31  92 SW3       29.84R
WASKISH        CLOUDY    36  34  93 CALM      29.83S
BIG FORK       MIX PCPN  34  32  93 S8        29.82F WCI  27
LONGVILLE      MIX PCPN  34  32  93 CALM      29.83S
GRAND RAPIDS   LGT SNOW  32  31  96 SE6       29.85F FOG     WCI  26
CRANE LAKE     CLOUDY    32  30  93 CALM      29.86R
ORR            LGT RAIN  32  28  86 CALM      29.83R
COOK           MIX PCPN  32  30  93 S5        29.87R WCI  27
WALKER         LGT RAIN  32  32  97 S3        29.83R
$$
MNZ012-019>021-037-240200-
   Northeast Minnesota

CITY           SKY/WX    TMP DP  RH WIND       PRES   REMARKS
DULUTH         LGT RAIN  33  30  88 NW5       29.90R WCI  29
ELY            MIX PCPN  30  30 100 S5        29.84F WCI  25
HIBBING        FRZ RAIN  31  31 100 SE7       29.83S FOG     WCI  24
EVELETH        LGT SNOW  32  31  94 SW7       29.91R WCI  26
DULUTH HARBOR  MIX PCPN  34  32  93 CALM      29.92R
TWO HARBORS    DRIZZLE   36  30  80 CALM      29.86S
SILVER BAY     DRIZZLE   34  32  93 CALM      29.88R
GRAND MARAIS     N/A     33  31  92 CALM      29.91F
G MARAIS ARPRT MIX PCPN  28  25  86 S5        29.87S WCI  23
$$
MNZ029>031-032-039>041-046>048-054>057-064-240200-
   West Central Minnesota

CITY           SKY/WX    TMP DP  RH WIND       PRES   REMARKS
FERGUS FALLS   CLOUDY    34  34 100 SE7       29.85R FOG     WCI  28
WHEATON        CLOUDY    36  34  93 E5        29.82R FOG
MORRIS         CLOUDY    36  36 100 E10       29.78S FOG
ALEXANDRIA     CLOUDY    34  34 100 SE9       29.81S FOG     WCI  27
ELBOW LAKE     CLOUDY    34  34 100 SE6       29.80S FOG     WCI  29
WADENA         MIX PCPN  32  32 100 E5        29.83R WCI  27
GLENWOOD       CLOUDY    34  34 100 E8        29.81R FOG     WCI  27
APPLETON       CLOUDY    37  36  93 CALM      29.77R FOG
BENSON         CLOUDY    37  34  87 SE9       29.80R HAZE
ORTONVILLE     DRIZZLE   36  34  93 E7        29.77R
MADISON        CLOUDY    39  39 100 E7        29.76R FOG
WILLMAR        DRIZZLE   36  36 100 E10       29.80R
$$
MNZ033>034-036-042>043-049>051-058-059-240200-
   Central Minnesota

CITY           SKY/WX    TMP DP  RH WIND       PRES   REMARKS
ST CLOUD       CLOUDY    35  35 100 E5        29.84R FOG     WCI  31
SAUK CENTRE    LGT RAIN  33  33  98 E5        29.82R WCI  29
PAYNESVILLE    DRIZZLE   34  34 100 SE6       29.82R WCI  29
AITKIN         MIX PCPN  36  30  80 CALM      29.86R
PINE RIVER     CLOUDY    34  34 100 S12       29.87F FOG     WCI  25
BRAINERD       CLOUDY    33  32  96 NE3       29.86R FOG
STAPLES        CLOUDY    32  32 100 CALM      29.84R FOG
LONG PRAIRIE   CLOUDY    32  32 100 E3        29.82S FOG
LITTLE FALLS   CLOUDY    34  32  93 SE3       29.85R FOG
LITCHFIELD     DRIZZLE   36  36 100 E8        29.81F
BUFFALO        DRIZZLE   36  34  93 E3        29.85R
MAPLE LAKE     DRIZZLE   37  36  97 SE5       29.85R
HUTCHINSON     DRIZZLE   36  36  99 E8        29.81F
$$
MNZ037-044-045-052-053-240200-
   East Central Minnesota

CITY           SKY/WX    TMP DP  RH WIND       PRES   REMARKS
PRINCETON      DRIZZLE   37  36  93 CALM      29.86R
MORA           LGT RAIN  34  32  93 CALM      29.88S
CAMBRIDGE      DRIZZLE   37  32  81 CALM      29.85R
RUSH CITY      DRIZZLE   35  32  91 CALM      29.87S
MOOSE LAKE     DRIZZLE   34  30  86 CALM      29.87R
HINCKLEY       DRIZZLE   34  32  93 SE3       29.86F
CLOQUET        LGT SNOW  32  30  93 CALM      29.90R
MCGREGOR       CLOUDY    34  32  93 CALM      29.89R
$$
MNZ071>073-080-081-089-090-097-098-240200-
   Southwest Minnesota

CITY           SKY/WX    TMP DP  RH WIND       PRES   REMARKS
MONTEVIDEO     CLOUDY    36  36 100 SE9       29.78S FOG
GRANITE FALLS  CLOUDY    38  37  93 E7        29.77S FOG
CANBY          CLOUDY    38  37  99 CALM      29.75R FOG
MARSHALL       CLOUDY    38  36  92 E8        29.75R
REDWOOD FALLS  CLOUDY    39  34  82 E12       29.76F
OLIVIA         MOCLDY    36  34  93 E8        29.77F
PIPESTONE      DRIZZLE   43  36  75 E8        29.70R
WINDOM         PTCLDY    43  36  75 E8        29.72F
WORTHINGTON    CLOUDY    41  36  82 SE14      29.71F
JACKSON        CLOUDY    39  34  81 E12       29.74S
TRACY          CLOUDY    39  37  91 E6        29.74F
SLAYTON        CLOUDY    39  35  85 E6        29.72S
$$
MNZ065>067-074>077-082>085-091>093-240200-
   South Central Minnesota

CITY           SKY/WX    TMP DP  RH WIND       PRES   REMARKS
NEW ULM        CLOUDY    39  34  81 E13       29.77F
ST JAMES       CLOUDY    39  36  87 CALM      29.77S
FAIRMONT       CLOUDY    40  35  83 E16       29.75F
GLENCOE        CLOUDY    37  37 100 E7        29.80F
FARIBAULT      CLOUDY    39  37  93 SE12      29.83F
OWATONNA       CLOUDY    39  36  87 E9        29.81F
WASECA         CLOUDY    37  36  93 E13       29.81F
ALBERT LEA     CLOUDY    37  37 100 E10       29.83F
$$
MNZ078>079-086>088-094>096-240200-
   Southeast Minnesota

CITY           SKY/WX    TMP DP  RH WIND       PRES   REMARKS
ROCHESTER      CLOUDY    39  37  92 S30       29.85S
RED WING       CLOUDY    41  32  70 S9        29.88R
STANTON        CLOUDY    40  36  84 SE9       29.84R
DODGE CENTER   MOCLDY    37  36  93 SE5       29.85R
WINONA         CLOUDY    37  34  87 SE10      29.89S
AUSTIN         CLOUDY    37  36  93 CALM      29.87R
PRESTON        LGT RAIN  37  35  90 S13G32    29.84R
$$
ABBREVIATIONS USED IN REMARKS
   TC - TEMPERATURES IN CELSIUS
  WCI - WIND CHILL INDEX
   HX - HEAT INDEX
  VSB - VISIBILITY
$$




USA.gov is the U.S. government's official web portal to all federal, state and local government web resources and services.